11.05.2024;10:00;56
11.05.2024;09:00;45
11.05.2024;08:00;36
11.05.2024;07:00;31
11.05.2024;06:00;45
11.05.2024;05:00;49
11.05.2024;04:00;52
11.05.2024;03:00;54
11.05.2024;02:00;56
11.05.2024;01:00;56
11.05.2024;00:00;61
10.05.2024;23:00;75
10.05.2024;22:00;91
10.05.2024;21:00;105
10.05.2024;20:00;116
10.05.2024;19:00;123
10.05.2024;18:00;121
10.05.2024;17:00;119
10.05.2024;16:00;116
10.05.2024;15:00;112
10.05.2024;14:00;111
10.05.2024;13:00;108
10.05.2024;12:00;94
10.05.2024;11:00;68
10.05.2024;10:00;54
10.05.2024;09:00;38
10.05.2024;08:00;11
10.05.2024;07:00;28
10.05.2024;06:00;32
10.05.2024;05:00;31
10.05.2024;04:00;23
10.05.2024;03:00;41
10.05.2024;02:00;42
10.05.2024;01:00;50
10.05.2024;00:00;65
09.05.2024;23:00;67
09.05.2024;22:00;74
09.05.2024;21:00;95
09.05.2024;20:00;109
09.05.2024;19:00;113
09.05.2024;18:00;113
09.05.2024;17:00;113
09.05.2024;16:00;111
09.05.2024;15:00;108
09.05.2024;14:00;106
09.05.2024;13:00;103
09.05.2024;12:00;98
09.05.2024;11:00;82
